Location: Cañada de la Miga
(34.7595°N, 106.2317°W)
Time: 01:07:33
(UTC+00:00)

Transit 4A - Visible Passes

Search period start: 07 December 2021 00:00
Search period end: 17 December 2021 00:00
Orbit: 866 x 978 km, 66.8° (Epoch: 06 December)

Date Brightness Start Highest point End Pass type
(mag) Time Alt. Az. Time Alt. Az. Time Alt. Az.
07 Dec 7.9 01:30:26 10° SSW 01:36:15 74° WNW 01:40:26 21° NNE visible
07 Dec 10.4 03:21:37 10° WNW 03:23:40 12° NW 03:24:00 12° NW visible
07 Dec 9.5 10:46:02 29° SE 10:46:02 29° SE 10:48:59 10° SE visible
07 Dec 9.5 12:29:37 17° WSW 12:29:37 17° WSW 12:32:31 10° SW visible
08 Dec 8.6 01:39:58 10° SW 01:45:36 48° WNW 01:50:09 16° N visible
08 Dec 9.7 10:56:11 23° SSE 10:56:11 23° SSE 10:58:22 10° SSE visible
09 Dec 9.3 01:49:51 10° WSW 01:55:02 32° NW 01:59:47 13° N visible
09 Dec 10.0 11:06:19 16° S 11:06:19 16° S 11:07:25 10° S visible
10 Dec 8.0 00:12:15 10° S 00:17:55 54° ESE 00:23:43 10° NE visible
10 Dec 9.8 02:00:06 10° W 02:04:35 22° NW 02:09:11 10° N visible
11 Dec 7.8 00:21:17 10° SSW 00:27:07 84° ESE 00:33:08 10° NNE visible
11 Dec 10.2 02:10:54 10° W 02:14:14 15° NW 02:17:38 10° NNW visible
12 Dec 8.3 00:30:38 10° SW 00:36:24 64° WNW 00:42:23 10° NNE visible
12 Dec 10.5 02:23:24 10° NW 02:24:00 10° NW 02:24:37 10° NW visible
13 Dec 8.9 00:40:17 10° SW 00:45:47 42° WNW 00:51:29 10° NNE visible
14 Dec 9.5 00:50:16 10° WSW 00:55:16 28° NW 01:00:25 10° N visible
15 Dec 10.0 01:00:41 10° W 01:04:51 19° NW 01:09:07 10° N visible
16 Dec 10.2 01:11:46 10° WNW 01:14:33 13° NW 01:17:21 10° NNW visible
